Simultaneous Nadir Overpasses (SNOs) Predictions

Prediction of SNOs between GOES-16 and NOAA-20 Satellite Orbit:

Table of predicted SNOs for the next 14.0 days since TLE Epoch: 10/24/2020
Index Date Time (GOES-16) GOES-16 Lat,Lon NOAA-20 Lat,Lon Distance(km) Time Diff (sec)
1 10/24/2020 18:22:34 -0.01, -75.18 0.23, -74.20 111.64 80
2 10/26/2020 06:44:22 0.01, -75.18 0.97, -79.47 489.82 80
3 10/27/2020 06:22:58 0.01, -75.18 -0.02, -74.94 26.90 80
4 10/29/2020 18:26:11 -0.01, -75.20 -0.11, -75.73 59.46 80
5 10/30/2020 18:10:07 -0.01, -75.21 0.88, -71.19 457.80 80
6 11/01/2020 06:31:56 0.01, -75.22 0.26, -76.48 142.10 80
7 11/02/2020 06:10:32 0.01, -75.23 -0.73, -71.94 375.22 80
8 11/03/2020 18:32:29 -0.00, -75.26 -0.44, -77.25 227.26 80
9 11/04/2020 18:16:25 -0.00, -75.27 0.56, -72.72 290.26 80
10 11/06/2020 06:38:14 0.00, -75.28 0.59, -78.00 309.04 80
